FW8685 Weather Reports


time (UTC)temp
C
wind
direction
speed
KPH
gust
KPH
rain 1hr
cm
rain 24hr
cm
rain mn
cm
humidity
%
barometer
mb
20260903164028 33 138 20.9 33.8 0.00 0.00 0.00 49 1011.2
20260903163526 33 146 19.3 41.8 0.00 0.00 0.00 52 1011.2
20260903163045 33 99 22.5 41.8 0.00 0.00 0.00 51 1011.2
20260903162527 33 134 22.5 32.2 0.00 0.00 0.00 52 1011.3
20260903162027 32 111 24.1 38.6 0.00 0.00 0.00 54 1011.4
20260903161541 32 123 17.7 38.6 0.00 0.00 0.00 53 1011.4
20260903161025 32 128 19.3 33.8 0.00 0.00 0.00 54 1011.4
20260903160524 32 105 19.3 33.8 0.00 0.00 0.00 55 1011.3
20260903160045 32 138 20.9 33.8 0.00 0.00 0.00 56 1011.3
20260903155526 32 135 19.3 33.8 0.00 0.00 0.00 56 1011.4
20260903155032 31 113 19.3 33.8 0.00 0.00 0.00 57 1011.5
20260903154603 31 144 17.7 33.8 0.00 0.00 0.00 58 1011.5
20260903154024 31 139 20.9 33.8 0.00 0.00 0.00 58 1011.5
20260903153525 31 137 22.5 33.8 0.00 0.00 0.00 59 1011.4
20260903153051 31 98 20.9 37.0 0.00 0.00 0.00 59 1011.4
20260903152525 30 115 20.9 37.0 0.00 0.00 0.00 60 1011.5
20260903152024 31 132 20.9 37.0 0.00 0.00 0.00 60 1011.4
20260903151546 30 106 17.7 37.0 0.00 0.00 0.00 61 1011.4
20260903151025 30 119 22.5 37.0 0.00 0.00 0.00 61 1011.4
20260903150526 30 119 22.5 35.4 0.00 0.00 0.00 62 1011.4
20260903150046 30 145 16.1 33.8 0.00 0.00 0.00 62 1011.4
20260903145528 30 126 20.9 37.0 0.00 0.00 0.00 62 1011.4
20260903145024 30 126 20.9 37.0 0.00 0.00 0.00 63 1011.4
20260903144543 29 121 24.1 37.0 0.00 0.00 0.00 63 1011.4
20260903144029 29 126 17.7 37.0 0.00 0.00 0.00 64 1011.5
20260903143525 29 141 17.7 32.2 0.00 0.00 0.00 65 1011.4
20260903143101 28 135 19.3 33.8 0.00 0.00 0.00 65 1011.5
20260903142527 28 126 17.7 33.8 0.00 0.00 0.00 66 1011.5
20260903142025 28 112 22.5 35.4 0.00 0.00 0.00 66 1011.7
20260903141559 28 113 17.7 35.4 0.00 0.00 0.00 68 1011.6
20260903141027 28 111 19.3 30.6 0.00 0.00 0.00 69 1011.7
20260903140524 27 134 19.3 30.6 0.00 0.00 0.00 70 1011.8
20260903140046 27 114 17.7 30.6 0.00 0.00 0.00 70 1011.8
20260903135524 27 114 19.3 33.8 0.00 0.00 0.00 71 1011.7
20260903135028 27 128 20.9 33.8 0.00 0.00 0.00 71 1011.8
20260903134557 26 110 22.5 33.8 0.00 0.00 0.00 72 1011.8
20260903134024 26 111 16.1 30.6 0.00 0.00 0.00 73 1011.7
20260903133524 26 113 14.5 30.6 0.00 0.00 0.00 74 1011.6
20260903133043 26 114 16.1 30.6 0.00 0.00 0.00 74 1011.6
20260903132524 25 89 16.1 24.1 0.00 0.00 0.00 75 1011.5
20260903132024 25 109 11.3 19.3 0.00 0.00 0.00 76 1011.5
20260903131548 25 136 12.9 22.5 0.00 0.00 0.00 77 1011.5
20260903131024 25 111 12.9 22.5 0.00 0.00 0.00 78 1011.5
20260903130526 24 115 9.7 19.3 0.00 0.00 0.00 79 1011.5
20260903130044 23 119 11.3 19.3 0.00 0.00 0.00 80 1011.4
20260903125525 23 111 11.3 20.9 0.00 0.00 0.00 80 1011.4
20260903125024 23 117 12.9 20.9 0.00 0.00 0.00 81 1011.4
20260903124545 23 102 12.9 20.9 0.00 0.00 0.00 81 1011.3
20260903124024 23 104 14.5 19.3 0.00 0.00 0.00 81 1011.3
20260903123526 23 96 12.9 17.7 0.00 0.00 0.00 81 1011.3
20260903123048 22 119 12.9 17.7 0.00 0.00 0.00 81 1011.1
20260903122524 22 115 12.9 17.7 0.00 0.00 0.00 81 1011.0
20260903122024 22 125 11.3 17.7 0.00 0.00 0.00 81 1011.1
20260903121544 22 109 11.3 17.7 0.00 0.00 0.00 81 1011.1
20260903121025 22 111 11.3 16.1 0.00 0.00 0.00 80 1011.0
20260903120523 22 101 9.7 14.5 0.00 0.00 0.00 80 1010.9
20260903120045 22 103 8.0 14.5 0.00 0.00 0.00 80 1010.9
20260903115524 22 111 9.7 14.5 0.00 0.00 0.00 80 1010.9
20260903115024 22 110 9.7 16.1 0.00 0.00 0.00 79 1010.8
20260903114545 22 109 8.0 16.1 0.00 0.00 0.00 79 1010.7
20260903114024 22 101 9.7 16.1 0.00 0.00 0.00 79 1010.6
20260903113524 22 107 9.7 14.5 0.00 0.00 0.00 79 1010.5
20260903113046 23 107 8.0 12.9 0.00 0.00 0.00 78 1010.6
20260903112524 23 98 9.7 12.9 0.00 0.00 0.00 78 1010.6
20260903112027 23 100 8.0 11.3 0.00 0.00 0.00 77 1010.7
20260903111544 23 92 4.8 11.3 0.00 0.00 0.00 77 1010.8
20260903111024 23 113 4.8 9.7 0.00 0.00 0.00 77 1010.7
20260903110525 23 119 4.8 11.3 0.00 0.00 0.00 77 1010.8
20260903110054 23 108 6.4 11.3 0.00 0.00 0.00 77 1010.6
20260903105525 23 108 4.8 9.7 0.00 0.00 0.00 76 1010.7
20260903105024 23 114 4.8 11.3 0.00 0.00 0.00 76 1010.6
20260903104547 23 117 4.8 11.3 0.00 0.00 0.00 76 1010.6
20260903104024 23 111 6.4 12.9 0.00 0.00 0.00 76 1010.6
20260903103523 23 117 6.4 12.9 0.00 0.00 0.00 75 1010.7
20260903103052 23 121 8.0 12.9 0.00 0.00 0.00 75 1010.6
20260903102522 23 115 8.0 12.9 0.00 0.00 0.00 75 1010.6
20260903102027 23 113 6.4 11.3 0.00 0.00 0.00 74 1010.7
20260903101554 23 115 4.8 11.3 0.00 0.00 0.00 73 1010.8
20260903101023 24 119 6.4 11.3 0.00 0.00 0.00 73 1010.6
20260903100525 24 111 6.4 11.3 0.00 0.00 0.00 73 1010.5
20260903100045 24 117 6.4 11.3 0.00 0.00 0.00 72 1010.6
20260903095523 24 110 6.4 11.3 0.00 0.00 0.00 72 1010.6
20260903095026 24 116 6.4 14.5 0.00 0.00 0.00 72 1010.6
20260903094545 24 117 8.0 14.5 0.00 0.00 0.00 71 1010.4
20260903094024 25 117 8.0 12.9 0.00 0.00 0.00 70 1010.5
20260903093525 25 109 6.4 12.9 0.00 0.00 0.00 70 1010.6
20260903093103 25 109 4.8 12.9 0.00 0.00 0.00 70 1010.6
20260903092527 25 109 6.4 12.9 0.00 0.00 0.00 69 1010.6
20260903092024 25 121 6.4 14.5 0.00 0.00 0.00 69 1010.6
20260903091545 25 121 8.0 14.5 0.00 0.00 0.00 69 1010.6
20260903091024 25 103 8.0 14.5 0.00 0.00 0.00 68 1010.6
20260903090524 25 119 6.4 14.5 0.00 0.00 0.00 68 1010.5
20260903090048 25 128 8.0 14.5 0.00 0.00 0.00 68 1010.4
20260903085523 25 119 8.0 14.5 0.00 0.00 0.00 67 1010.4
20260903085024 25 128 8.0 17.7 0.00 0.00 0.00 67 1010.4
20260903084543 25 119 9.7 17.7 0.00 0.00 0.00 67 1010.3
20260903084026 25 123 9.7 17.7 0.00 0.00 0.00 66 1010.3
20260903083527 25 114 9.7 17.7 0.00 0.00 0.00 66 1010.2
20260903083047 26 121 9.7 17.7 0.00 0.00 0.00 66 1010.2
20260903082526 26 111 11.3 17.7 0.00 0.00 0.00 66 1010.4
20260903082024 26 102 9.7 17.7 0.00 0.00 0.00 65 1010.3
20260903081547 26 133 11.3 17.7 0.00 0.00 0.00 65 1010.3
20260903081024 26 115 11.3 17.7 0.00 0.00 0.00 65 1010.3
20260903080524 26 113 9.7 19.3 0.00 0.00 0.00 65 1010.2
20260903080047 26 110 12.9 19.3 0.00 0.00 0.00 65 1010.2
20260903075527 26 130 9.7 19.3 0.00 0.00 0.00 65 1010.1
20260903075028 26 114 11.3 17.7 0.00 0.00 0.00 64 1010.1
20260903074542 26 126 11.3 17.7 0.00 0.00 0.00 64 1010.0
20260903074026 26 116 9.7 17.7 0.00 0.00 0.00 64 1010.1
20260903073524 26 119 11.3 17.7 0.00 0.00 0.00 64 1010.0
20260903073046 26 99 11.3 16.1 0.00 0.00 0.00 63 1010.3
20260903072523 26 109 9.7 14.5 0.00 0.00 0.00 63 1010.3
20260903072029 26 110 9.7 14.5 0.00 0.00 0.00 63 1010.2
20260903071544 26 115 9.7 17.7 0.00 0.00 0.00 63 1010.1
20260903071025 26 111 9.7 17.7 0.00 0.00 0.00 63 1010.1
20260903070525 26 119 11.3 17.7 0.00 0.00 0.00 63 1010.2
20260903070047 26 117 9.7 17.7 0.00 0.00 0.00 62 1010.1
20260903065525 26 103 11.3 17.7 0.00 0.00 0.00 62 1010.2
20260903065023 26 105 11.3 17.7 0.00 0.00 0.00 62 1010.1
20260903064546 26 111 11.3 17.7 0.00 0.00 0.00 62 1010.0
20260903064024 26 115 11.3 17.7 0.00 0.00 0.00 62 1010.1
20260903063524 26 105 11.3 17.7 0.00 0.00 0.00 61 1010.0
20260903063109 26 102 12.9 17.7 0.00 0.00 0.00 61 1009.9
20260903062524 26 107 11.3 17.7 0.00 0.00 0.00 61 1010.0
20260903062028 27 109 11.3 16.1 0.00 0.00 0.00 61 1010.1
20260903061543 27 105 11.3 14.5 0.00 0.00 0.00 60 1010.0
20260903061024 27 108 11.3 16.1 0.00 0.00 0.00 60 1010.0
20260903060526 27 101 9.7 17.7 0.00 0.00 0.00 60 1009.9
20260903060048 27 106 9.7 17.7 0.00 0.00 0.00 60 1010.0
20260903055527 27 103 11.3 17.7 0.00 0.00 0.00 59 1009.9
20260903055024 27 103 11.3 16.1 0.00 0.00 0.00 59 1009.9
20260903054545 27 116 11.3 16.1 0.00 0.00 0.00 59 1009.9
20260903054024 27 121 11.3 17.7 0.00 0.00 0.00 59 1009.9
20260903053524 27 106 11.3 17.7 0.00 0.00 0.00 58 1010.0
20260903053041 27 111 12.9 17.7 0.00 0.00 0.00 58 1009.9
20260903052525 27 100 12.9 17.7 0.00 0.00 0.00 58 1009.9
20260903052025 27 107 11.3 17.7 0.00 0.00 0.00 58 1009.9
20260903051548 27 107 11.3 17.7 0.00 0.00 0.00 57 1010.0
20260903051023 27 111 11.3 16.1 0.00 0.00 0.00 57 1009.9
20260903050525 28 108 11.3 17.7 0.00 0.00 0.00 57 1009.9
20260903050107 28 101 11.3 19.3 0.00 0.00 0.00 56 1009.9
20260903045524 28 101 11.3 19.3 0.00 0.00 0.00 56 1009.8
20260903045024 28 106 12.9 19.3 0.00 0.00 0.00 56 1009.8
20260903044551 28 103 11.3 19.3 0.00 0.00 0.00 55 1009.8
20260903044024 28 100 12.9 20.9 0.00 0.00 0.00 55 1009.8
20260903043524 28 115 12.9 20.9 0.00 0.00 0.00 55 1009.9
20260903043048 28 106 12.9 20.9 0.00 0.00 0.00 55 1009.9
20260903042523 28 88 12.9 20.9 0.00 0.00 0.00 54 1009.9
20260903042024 28 105 12.9 20.9 0.00 0.00 0.00 54 1009.9
20260903041545 28 105 14.5 20.9 0.00 0.00 0.00 54 1009.9
20260903041024 29 109 11.3 19.3 0.00 0.00 0.00 54 1009.9
20260903040526 29 98 14.5 20.9 0.00 0.00 0.00 53 1009.9
20260903040049 29 107 12.9 22.5 0.00 0.00 0.00 53 1010.0
20260903035521 29 107 14.5 22.5 0.00 0.00 0.00 53 1010.0
20260903035025 29 101 14.5 20.9 0.00 0.00 0.00 53 1010.0
20260903034548 29 105 12.9 22.5 0.00 0.00 0.00 53 1010.0
20260903034024 29 90 14.5 22.5 0.00 0.00 0.00 53 1010.0
20260903033528 29 104 12.9 20.9 0.00 0.00 0.00 52 1010.1
20260903033045 29 99 12.9 22.5 0.00 0.00 0.00 52 1010.2
20260903032526 29 91 12.9 22.5 0.00 0.00 0.00 52 1010.2
20260903032024 29 94 12.9 22.5 0.00 0.00 0.00 52 1010.2
20260903031545 29 96 14.5 22.5 0.00 0.00 0.00 52 1010.1
20260903031024 29 115 12.9 20.9 0.00 0.00 0.00 52 1010.0
20260903030525 29 105 12.9 20.9 0.00 0.00 0.00 52 1010.1
20260903030049 29 99 12.9 19.3 0.00 0.00 0.00 52 1010.1
20260903025525 29 93 12.9 19.3 0.00 0.00 0.00 52 1010.1
20260903025023 29 103 9.7 16.1 0.00 0.00 0.00 51 1010.0
20260903024545 30 99 9.7 16.1 0.00 0.00 0.00 51 1010.0
20260903024023 30 104 8.0 14.5 0.00 0.00 0.00 51 1010.0
20260903023523 30 103 8.0 14.5 0.00 0.00 0.00 51 1010.0
20260903023043 30 101 11.3 16.1 0.00 0.00 0.00 50 1010.0
20260903022525 30 105 9.7 17.7 0.00 0.00 0.00 50 1009.9
20260903022024 30 102 9.7 17.7 0.00 0.00 0.00 50 1009.8
20260903021546 30 112 11.3 17.7 0.00 0.00 0.00 49 1009.7
20260903021023 30 94 8.0 14.5 0.00 0.00 0.00 49 1009.7
20260903020523 30 101 8.0 14.5 0.00 0.00 0.00 49 1009.5
20260903020050 30 107 9.7 16.1 0.00 0.00 0.00 49 1009.4
20260903015523 31 109 9.7 16.1 0.00 0.00 0.00 48 1009.3
20260903015025 31 103 11.3 19.3 0.00 0.00 0.00 48 1009.3
20260903014549 31 94 9.7 19.3 0.00 0.00 0.00 48 1009.4
20260903014024 31 101 11.3 19.3 0.00 0.00 0.00 47 1009.2
20260903013525 31 111 11.3 14.5 0.00 0.00 0.00 47 1009.2
20260903013045 31 104 8.0 14.5 0.00 0.00 0.00 46 1009.1
20260903012530 32 109 9.7 14.5 0.00 0.00 0.00 46 1009.0
20260903012027 32 105 9.7 16.1 0.00 0.00 0.00 46 1009.0
20260903011558 32 114 9.7 16.1 0.00 0.00 0.00 45 1009.0
20260903011024 32 103 11.3 17.7 0.00 0.00 0.00 45 1009.0
20260903010527 32 112 11.3 17.7 0.00 0.00 0.00 44 1008.9
20260903010044 33 103 11.3 17.7 0.00 0.00 0.00 43 1009.0
20260903005526 33 101 12.9 20.9 0.00 0.00 0.00 42 1009.0
20260903005025 33 109 14.5 20.9 0.00 0.00 0.00 42 1008.9
20260903004541 33 104 12.9 20.9 0.00 0.00 0.00 41 1008.9
20260903004026 34 115 11.3 20.9 0.00 0.00 0.00 41 1009.0
20260903003525 35 103 14.5 20.9 0.00 0.00 0.00 40 1009.0
20260903003046 35 107 14.5 20.9 0.00 0.00 0.00 40 1009.1
20260903002529 35 94 14.5 20.9 0.00 0.00 0.00 39 1009.1
20260903002024 35 108 14.5 24.1 0.00 0.00 0.00 39 1009.0
20260903001543 35 108 12.9 24.1 0.00 0.00 0.00 39 1009.0
20260903001021 36 124 14.5 24.1 0.00 0.00 0.00 38 1009.0
20260903000521 36 106 16.1 22.5 0.00 0.00 0.00 38 1009.0
20260903000046 36 109 12.9 27.4 0.00 0.00 0.00 37 1009.2
20260902235524 36 123 16.1 27.4 0.00 0.00 0.00 36 1009.0
20260902235023 36 107 16.1 27.4 0.00 0.00 0.00 36 1009.0
20260902234547 36 109 14.5 30.6 0.00 0.00 0.00 36 1009.0
20260902234023 36 102 17.7 30.6 0.00 0.00 0.00 36 1009.1
20260902233526 36 110 20.9 33.8 0.00 0.00 0.00 35 1009.0
20260902233053 36 126 20.9 33.8 0.00 0.00 0.00 35 1009.0
20260902232526 36 129 19.3 33.8 0.00 0.00 0.00 35 1009.1
20260902232023 37 135 20.9 33.8 0.00 0.00 0.00 34 1009.1
20260902231558 37 139 20.9 32.2 0.00 0.00 0.00 35 1009.0
20260902231021 37 98 17.7 32.2 0.00 0.00 0.00 35 1009.0
20260902230524 37 100 17.7 29.0 0.00 0.00 0.00 35 1009.0
20260902230048 37 102 19.3 30.6 0.00 0.00 0.00 35 1009.0
20260902225524 37 101 19.3 30.6 0.00 0.00 0.00 35 1009.1
20260902225024 37 116 17.7 30.6 0.00 0.00 0.00 35 1009.1
20260902224553 37 120 19.3 30.6 0.00 0.00 0.00 35 1009.1
20260902224023 38 130 20.9 27.4 0.00 0.00 0.00 34 1009.1
20260902223525 38 114 17.7 29.0 0.00 0.00 0.00 34 1009.3
20260902223043 38 119 16.1 30.6 0.00 0.00 0.00 33 1009.3
20260902222524 38 144 17.7 30.6 0.00 0.00 0.00 32 1009.3
20260902222024 38 124 16.1 30.6 0.00 0.00 0.00 32 1009.3
20260902221550 38 128 19.3 30.6 0.00 0.00 0.00 31 1009.4
20260902221027 38 103 17.7 30.6 0.00 0.00 0.00 32 1009.4
20260902220524 37 115 14.5 30.6 0.00 0.00 0.00 32 1009.4
20260902220044 38 119 17.7 29.0 0.00 0.00 0.00 32 1009.5
20260902215524 38 128 16.1 29.0 0.00 0.00 0.00 32 1009.4
20260902215024 38 123 17.7 30.6 0.00 0.00 0.00 31 1009.5
20260902214546 38 117 19.3 32.2 0.00 0.00 0.00 32 1009.5
20260902214024 38 139 19.3 32.2 0.00 0.00 0.00 30 1009.6
20260902213525 38 120 17.7 32.2 0.00 0.00 0.00 29 1009.6
20260902213052 38 153 12.9 32.2 0.00 0.00 0.00 30 1009.6
20260902212525 38 123 17.7 33.8 0.00 0.00 0.00 30 1009.7
20260902212024 38 122 24.1 33.8 0.00 0.00 0.00 30 1009.7
20260902211552 38 129 8.0 22.5 0.00 0.00 0.00 31 1009.8
20260902211026 38 146 11.3 27.4 0.00 0.00 0.00 30 1010.0
20260902210525 38 144 11.3 32.2 0.00 0.00 0.00 31 1010.0
20260902210047 38 145 19.3 32.2 0.00 0.00 0.00 31 1010.1
20260902205525 38 103 20.9 32.2 0.00 0.00 0.00 32 1010.1
20260902205024 38 141 17.7 32.2 0.00 0.00 0.00 32 1010.1
20260902204547 38 169 14.5 27.4 0.00 0.00 0.00 31 1010.3
20260902204024 38 157 11.3 27.4 0.00 0.00 0.00 31 1010.3
20260902203523 38 126 9.7 30.6 0.00 0.00 0.00 31 1010.3
20260902203046 38 151 14.5 30.6 0.00 0.00 0.00 30 1010.4
20260902202524 39 113 16.1 25.7 0.00 0.00 0.00 31 1010.5
20260902202024 39 138 9.7 29.0 0.00 0.00 0.00 32 1010.6
20260902201542 38 178 17.7 37.0 0.00 0.00 0.00 31 1010.7
20260902201023 38 115 17.7 37.0 0.00 0.00 0.00 31 1010.6
20260902200528 38 117 19.3 32.2 0.00 0.00 0.00 33 1010.7
20260902200045 38 96 17.7 33.8 0.00 0.00 0.00 33 1010.8
20260902195523 38 112 19.3 33.8 0.00 0.00 0.00 32 1010.8
20260902195025 39 101 14.5 29.0 0.00 0.00 0.00 33 1010.8
20260902194544 38 102 17.7 29.0 0.00 0.00 0.00 33 1010.9
20260902194025 38 106 16.1 33.8 0.00 0.00 0.00 32 1011.0
20260902193524 38 90 17.7 33.8 0.00 0.00 0.00 33 1011.1
20260902193049 38 127 19.3 30.6 0.00 0.00 0.00 33 1011.1
20260902192524 38 101 17.7 30.6 0.00 0.00 0.00 35 1011.1
20260902192024 38 111 14.5 30.6 0.00 0.00 0.00 35 1011.3
20260902191546 38 123 19.3 30.6 0.00 0.00 0.00 34 1011.3
20260902191026 38 117 16.1 38.6 0.00 0.00 0.00 37 1011.4
20260902190525 38 117 20.9 38.6 0.00 0.00 0.00 37 1011.4
20260902190046 38 134 14.5 30.6 0.00 0.00 0.00 36 1011.6
20260902185524 38 149 19.3 40.2 0.00 0.00 0.00 36 1011.7
20260902185024 38 96 20.9 40.2 0.00 0.00 0.00 36 1011.7
20260902184552 38 104 20.9 37.0 0.00 0.00 0.00 36 1011.8
20260902184023 38 144 11.3 29.0 0.00 0.00 0.00 37 1011.9
20260902183524 38 126 19.3 32.2 0.00 0.00 0.00 38 1012.0
20260902183045 37 124 17.7 37.0 0.00 0.00 0.00 37 1012.0
20260902182523 37 148 16.1 37.0 0.00 0.00 0.00 37 1012.2
20260902182025 37 107 19.3 32.2 0.00 0.00 0.00 38 1012.2
20260902181546 37 103 16.1 32.2 0.00 0.00 0.00 39 1012.3
20260902181026 37 109 20.9 33.8 0.00 0.00 0.00 39 1012.4
20260902180523 37 113 22.5 37.0 0.00 0.00 0.00 39 1012.4
20260902175522 37 113 14.5 27.4 0.00 0.00 0.00 39 1012.4
20260902175025 37 121 16.1 32.2 0.00 0.00 0.00 40 1012.5
20260902174549 37 136 17.7 37.0 0.00 0.00 0.00 40 1012.7
20260902174024 37 153 17.7 37.0 0.00 0.00 0.00 40 1012.7
20260902173526 37 147 25.7 37.0 0.00 0.00 0.00 40 1012.8
20260902173046 36 154 16.1 30.6 0.00 0.00 0.00 42 1012.9
20260902172526 36 130 16.1 30.6 0.00 0.00 0.00 41 1012.9
20260902172024 36 132 19.3 30.6 0.00 0.00 0.00 42 1013.0
20260902171548 36 128 22.5 30.6 0.00 0.00 0.00 42 1013.0
20260902171024 36 102 16.1 30.6 0.00 0.00 0.00 42 1013.0
20260902170525 36 122 14.5 30.6 0.00 0.00 0.00 43 1013.1
20260902170047 36 138 17.7 29.0 0.00 0.00 0.00 43 1013.2
20260902165525 36 124 16.1 32.2 0.00 0.00 0.00 43 1013.1
20260902165028 35 146 16.1 32.2 0.00 0.00 0.00 44 1013.1
20260902164545 35 136 16.1 30.6 0.00 0.00 0.00 44 1013.2